Date_Time,Julian_Date,Latitude,Longitude,Instrument_Depth,U,V,Speed,Direction
(yyyy-mm-dd hh:mn:ss UTC),(JD),(+ deg. North),(+ deg. East),(m),(cm/s),(cm/s),(cm/s),(deg True)
1983-03-22 18:00:00 UTC,2445416.250000,28.7317,-95.2428,0201,0.28,-8.00,8.0000,178.0000
1983-03-22 18:30:00 UTC,2445416.270833,28.7317,-95.2428,0201,-0.17,-10.00,10.0000,181.0000
1983-03-22 19:00:00 UTC,2445416.291667,28.7317,-95.2428,0201,-1.25,-11.93,12.0000,186.0000
1983-03-22 19:30:00 UTC,2445416.312500,28.7317,-95.2428,0201,-2.67,-13.74,14.0000,191.0000
1983-03-22 20:00:00 UTC,2445416.333333,28.7317,-95.2428,0201,-4.14,-15.45,16.0000,195.0000
1983-03-22 20:30:00 UTC,2445416.354167,28.7317,-95.2428,0201,-5.25,-16.17,17.0000,198.0000
1983-03-22 21:00:00 UTC,2445416.375000,28.7317,-95.2428,0201,-4.97,-16.26,17.0000,197.0000
1983-03-22 21:30:00 UTC,2445416.395833,28.7317,-95.2428,0201,-4.40,-16.42,17.0000,195.0000
1983-03-22 22:00:00 UTC,2445416.416667,28.7317,-95.2428,0201,-4.66,-17.39,18.0000,195.0000
1983-03-22 22:30:00 UTC,2445416.437500,28.7317,-95.2428,0201,-5.18,-19.32,20.0000,195.0000
1983-03-22 23:00:00 UTC,2445416.458333,28.7317,-95.2428,0201,-6.06,-21.15,22.0000,196.0000
1983-03-22 23:30:00 UTC,2445416.479167,28.7317,-95.2428,0201,-7.31,-23.91,25.0000,197.0000
1983-03-23 00:00:00 UTC,2445416.500000,28.7317,-95.2428,0201,-9.12,-26.47,28.0000,199.0000
1983-03-23 00:30:00 UTC,2445416.520833,28.7317,-95.2428,0201,-10.03,-26.14,28.0000,201.0000
1983-03-23 01:00:00 UTC,2445416.541667,28.7317,-95.2428,0201,-10.11,-25.03,27.0000,202.0000
1983-03-23 01:30:00 UTC,2445416.562500,28.7317,-95.2428,0201,-9.23,-25.37,27.0000,200.0000
1983-03-23 02:00:00 UTC,2445416.583333,28.7317,-95.2428,0201,-8.65,-26.63,28.0000,198.0000
1983-03-23 02:30:00 UTC,2445416.604167,28.7317,-95.2428,0201,-8.96,-27.58,29.0000,198.0000
1983-03-23 03:00:00 UTC,2445416.625000,28.7317,-95.2428,0201,-8.48,-27.73,29.0000,197.0000
1983-03-23 03:30:00 UTC,2445416.645833,28.7317,-95.2428,0201,-9.44,-27.42,29.0000,199.0000
1983-03-23 04:00:00 UTC,2445416.666667,28.7317,-95.2428,0201,-11.24,-27.82,30.0000,202.0000
1983-03-23 04:30:00 UTC,2445416.687500,28.7317,-95.2428,0201,-12.20,-27.41,30.0000,204.0000
1983-03-23 05:00:00 UTC,2445416.708333,28.7317,-95.2428,0201,-12.61,-28.32,31.0000,204.0000
1983-03-23 05:30:00 UTC,2445416.729167,28.7317,-95.2428,0201,-13.02,-29.23,32.0000,204.0000
1983-03-23 06:00:00 UTC,2445416.750000,28.7317,-95.2428,0201,-13.02,-29.23,32.0000,204.0000
1983-03-23 06:30:00 UTC,2445416.770833,28.7317,-95.2428,0201,-12.50,-29.46,32.0000,203.0000
1983-03-23 07:00:00 UTC,2445416.791667,28.7317,-95.2428,0201,-12.50,-29.46,32.0000,203.0000
1983-03-23 07:30:00 UTC,2445416.812500,28.7317,-95.2428,0201,-10.75,-28.01,30.0000,201.0000
1983-03-23 08:00:00 UTC,2445416.833333,28.7317,-95.2428,0201,-10.03,-26.14,28.0000,201.0000
1983-03-23 08:30:00 UTC,2445416.854167,28.7317,-95.2428,0201,-10.39,-27.07,29.0000,201.0000
1983-03-23 09:00:00 UTC,2445416.875000,28.7317,-95.2428,0201,-10.75,-28.01,30.0000,201.0000
1983-03-23 09:30:00 UTC,2445416.895833,28.7317,-95.2428,0201,-9.77,-28.37,30.0000,199.0000
1983-03-23 10:00:00 UTC,2445416.916667,28.7317,-95.2428,0201,-8.48,-27.73,29.0000,197.0000
1983-03-23 10:30:00 UTC,2445416.937500,28.7317,-95.2428,0201,-7.99,-27.88,29.0000,196.0000
1983-03-23 11:00:00 UTC,2445416.958333,28.7317,-95.2428,0201,-8.19,-26.78,28.0000,197.0000
1983-03-23 11:30:00 UTC,2445416.979167,28.7317,-95.2428,0201,-7.25,-27.05,28.0000,195.0000
1983-03-23 12:00:00 UTC,2445417.000000,28.7317,-95.2428,0201,-6.30,-27.28,28.0000,193.0000
1983-03-23 12:30:00 UTC,2445417.020833,28.7317,-95.2428,0201,-6.77,-27.17,28.0000,194.0000
1983-03-23 13:00:00 UTC,2445417.041667,28.7317,-95.2428,0201,-5.82,-27.39,28.0000,192.0000
1983-03-23 13:30:00 UTC,2445417.062500,28.7317,-95.2428,0201,-3.76,-26.74,27.0000,188.0000
1983-03-23 14:00:00 UTC,2445417.083333,28.7317,-95.2428,0201,-3.05,-24.81,25.0000,187.0000
1983-03-23 14:30:00 UTC,2445417.104167,28.7317,-95.2428,0201,-3.62,-25.75,26.0000,188.0000
1983-03-23 15:00:00 UTC,2445417.125000,28.7317,-95.2428,0201,-3.76,-26.74,27.0000,188.0000
1983-03-23 15:30:00 UTC,2445417.145833,28.7317,-95.2428,0201,-4.38,-27.66,28.0000,189.0000
1983-03-23 16:00:00 UTC,2445417.166667,28.7317,-95.2428,0201,-5.34,-27.49,28.0000,191.0000
1983-03-23 16:30:00 UTC,2445417.187500,28.7317,-95.2428,0201,-7.76,-28.98,30.0000,195.0000
1983-03-23 17:00:00 UTC,2445417.208333,28.7317,-95.2428,0201,-10.09,-29.31,31.0000,199.0000
1983-03-23 17:30:00 UTC,2445417.229167,28.7317,-95.2428,0201,-10.09,-29.31,31.0000,199.0000
1983-03-23 18:00:00 UTC,2445417.250000,28.7317,-95.2428,0201,-8.77,-28.69,30.0000,197.0000
1983-03-23 18:30:00 UTC,2445417.270833,28.7317,-95.2428,0201,-9.92,-27.25,29.0000,200.0000
1983-03-23 19:00:00 UTC,2445417.291667,28.7317,-95.2428,0201,-12.26,-26.28,29.0000,205.0000
1983-03-23 19:30:00 UTC,2445417.312500,28.7317,-95.2428,0201,-11.84,-24.27,27.0000,206.0000
1983-03-23 20:00:00 UTC,2445417.333333,28.7317,-95.2428,0201,-10.17,-22.84,25.0000,204.0000
1983-03-23 20:30:00 UTC,2445417.354167,28.7317,-95.2428,0201,-9.77,-23.01,25.0000,203.0000
1983-03-23 21:00:00 UTC,2445417.375000,28.7317,-95.2428,0201,-8.87,-19.03,21.0000,205.0000
1983-03-23 21:30:00 UTC,2445417.395833,28.7317,-95.2428,0201,-6.64,-15.65,17.0000,203.0000
1983-03-23 22:00:00 UTC,2445417.416667,28.7317,-95.2428,0201,-2.23,-15.84,16.0000,188.0000
1983-03-23 22:30:00 UTC,2445417.437500,28.7317,-95.2428,0201,2.37,-16.83,17.0000,172.0000
1983-03-23 23:00:00 UTC,2445417.458333,28.7317,-95.2428,0201,5.56,-17.12,18.0000,162.0000
1983-03-23 23:30:00 UTC,2445417.479167,28.7317,-95.2428,0201,7.12,-17.62,19.0000,158.0000
1983-03-24 00:00:00 UTC,2445417.500000,28.7317,-95.2428,0201,6.06,-21.15,22.0000,164.0000
1983-03-24 00:30:00 UTC,2445417.520833,28.7317,-95.2428,0201,2.80,-22.83,23.0000,173.0000
1983-03-24 01:00:00 UTC,2445417.541667,28.7317,-95.2428,0201,0.84,-23.99,24.0000,178.0000
1983-03-24 01:30:00 UTC,2445417.562500,28.7317,-95.2428,0201,-0.87,-24.98,25.0000,182.0000
1983-03-24 02:00:00 UTC,2445417.583333,28.7317,-95.2428,0201,-4.22,-26.67,27.0000,189.0000
1983-03-24 02:30:00 UTC,2445417.604167,28.7317,-95.2428,0201,-10.03,-26.14,28.0000,201.0000
1983-03-24 03:00:00 UTC,2445417.625000,28.7317,-95.2428,0201,-14.50,-25.11,29.0000,210.0000
1983-03-24 03:30:00 UTC,2445417.645833,28.7317,-95.2428,0201,-16.88,-26.00,31.0000,213.0000
1983-03-24 04:00:00 UTC,2445417.666667,28.7317,-95.2428,0201,-17.89,-26.53,32.0000,214.0000
1983-03-24 04:30:00 UTC,2445417.687500,28.7317,-95.2428,0201,-19.01,-28.19,34.0000,214.0000
1983-03-24 05:00:00 UTC,2445417.708333,28.7317,-95.2428,0201,-19.50,-27.85,34.0000,215.0000
1983-03-24 05:30:00 UTC,2445417.729167,28.7317,-95.2428,0201,-19.09,-24.43,31.0000,218.0000
1983-03-24 06:00:00 UTC,2445417.750000,28.7317,-95.2428,0201,-17.24,-22.06,28.0000,218.0000
1983-03-24 06:30:00 UTC,2445417.770833,28.7317,-95.2428,0201,-16.22,-24.04,29.0000,214.0000
1983-03-24 07:00:00 UTC,2445417.791667,28.7317,-95.2428,0201,-16.78,-24.87,30.0000,214.0000
1983-03-24 07:30:00 UTC,2445417.812500,28.7317,-95.2428,0201,-18.05,-23.96,30.0000,217.0000
1983-03-24 08:00:00 UTC,2445417.833333,28.7317,-95.2428,0201,-17.78,-25.39,31.0000,215.0000
1983-03-24 08:30:00 UTC,2445417.854167,28.7317,-95.2428,0201,-16.96,-27.14,32.0000,212.0000
1983-03-24 09:00:00 UTC,2445417.875000,28.7317,-95.2428,0201,-16.96,-27.14,32.0000,212.0000
1983-03-24 09:30:00 UTC,2445417.895833,28.7317,-95.2428,0201,-15.97,-26.57,31.0000,211.0000
1983-03-24 10:00:00 UTC,2445417.916667,28.7317,-95.2428,0201,-15.97,-26.57,31.0000,211.0000
1983-03-24 10:30:00 UTC,2445417.937500,28.7317,-95.2428,0201,-15.50,-26.85,31.0000,210.0000
1983-03-24 11:00:00 UTC,2445417.958333,28.7317,-95.2428,0201,-15.00,-25.98,30.0000,210.0000
1983-03-24 11:30:00 UTC,2445417.979167,28.7317,-95.2428,0201,-15.00,-25.98,30.0000,210.0000
1983-03-24 12:00:00 UTC,2445418.000000,28.7317,-95.2428,0201,-15.00,-25.98,30.0000,210.0000
1983-03-24 12:30:00 UTC,2445418.020833,28.7317,-95.2428,0201,-14.50,-25.11,29.0000,210.0000
1983-03-24 13:00:00 UTC,2445418.041667,28.7317,-95.2428,0201,-14.54,-21.56,26.0000,214.0000
1983-03-24 13:30:00 UTC,2445418.062500,28.7317,-95.2428,0201,-14.05,-15.61,21.0000,222.0000
1983-03-24 14:00:00 UTC,2445418.083333,28.7317,-95.2428,0201,-12.14,-8.82,15.0000,234.0000
1983-03-24 14:30:00 UTC,2445418.104167,28.7317,-95.2428,0201,-11.33,-8.23,14.0000,234.0000
1983-03-24 15:00:00 UTC,2445418.125000,28.7317,-95.2428,0201,-10.47,-13.40,17.0000,218.0000
1983-03-24 15:30:00 UTC,2445418.145833,28.7317,-95.2428,0201,-9.53,-18.71,21.0000,207.0000
1983-03-24 16:00:00 UTC,2445418.166667,28.7317,-95.2428,0201,-9.77,-23.01,25.0000,203.0000
1983-03-24 16:30:00 UTC,2445418.187500,28.7317,-95.2428,0201,-10.03,-26.14,28.0000,201.0000
1983-03-24 17:00:00 UTC,2445418.208333,28.7317,-95.2428,0201,-8.77,-28.69,30.0000,197.0000
1983-03-24 17:30:00 UTC,2445418.229167,28.7317,-95.2428,0201,-8.27,-28.84,30.0000,196.0000
1983-03-24 18:00:00 UTC,2445418.250000,28.7317,-95.2428,0201,-6.77,-27.17,28.0000,194.0000
1983-03-24 18:30:00 UTC,2445418.270833,28.7317,-95.2428,0201,-5.04,-28.56,29.0000,190.0000
1983-03-24 19:00:00 UTC,2445418.291667,28.7317,-95.2428,0201,-3.78,-30.77,31.0000,187.0000
1983-03-24 19:30:00 UTC,2445418.312500,28.7317,-95.2428,0201,-3.78,-30.77,31.0000,187.0000
1983-03-24 20:00:00 UTC,2445418.333333,28.7317,-95.2428,0201,-4.45,-31.69,32.0000,188.0000
1983-03-24 20:30:00 UTC,2445418.354167,28.7317,-95.2428,0201,-5.16,-32.59,33.0000,189.0000
1983-03-24 21:00:00 UTC,2445418.375000,28.7317,-95.2428,0201,-6.86,-32.28,33.0000,192.0000
1983-03-24 21:30:00 UTC,2445418.395833,28.7317,-95.2428,0201,-6.86,-32.28,33.0000,192.0000
1983-03-24 22:00:00 UTC,2445418.416667,28.7317,-95.2428,0201,-5.56,-31.51,32.0000,190.0000
1983-03-24 22:30:00 UTC,2445418.437500,28.7317,-95.2428,0201,-5.92,-30.43,31.0000,191.0000
1983-03-24 23:00:00 UTC,2445418.458333,28.7317,-95.2428,0201,-7.26,-29.11,30.0000,194.0000
1983-03-24 23:30:00 UTC,2445418.479167,28.7317,-95.2428,0201,-9.27,-28.53,30.0000,198.0000
1983-03-25 00:00:00 UTC,2445418.500000,28.7317,-95.2428,0201,-10.86,-26.89,29.0000,202.0000
1983-03-25 00:30:00 UTC,2445418.520833,28.7317,-95.2428,0201,-12.26,-24.06,27.0000,207.0000
1983-03-25 01:00:00 UTC,2445418.541667,28.7317,-95.2428,0201,-12.12,-21.87,25.0000,209.0000
1983-03-25 01:30:00 UTC,2445418.562500,28.7317,-95.2428,0201,-10.90,-21.38,24.0000,207.0000
1983-03-25 02:00:00 UTC,2445418.583333,28.7317,-95.2428,0201,-10.08,-20.67,23.0000,206.0000
1983-03-25 02:30:00 UTC,2445418.604167,28.7317,-95.2428,0201,-9.30,-19.94,22.0000,205.0000
1983-03-25 03:00:00 UTC,2445418.625000,28.7317,-95.2428,0201,-8.60,-20.25,22.0000,203.0000
1983-03-25 03:30:00 UTC,2445418.645833,28.7317,-95.2428,0201,-7.87,-21.61,23.0000,200.0000
1983-03-25 04:00:00 UTC,2445418.666667,28.7317,-95.2428,0201,-9.37,-23.18,25.0000,202.0000
1983-03-25 04:30:00 UTC,2445418.687500,28.7317,-95.2428,0201,-12.26,-24.06,27.0000,207.0000
1983-03-25 05:00:00 UTC,2445418.708333,28.7317,-95.2428,0201,-14.94,-24.86,29.0000,211.0000
1983-03-25 05:30:00 UTC,2445418.729167,28.7317,-95.2428,0201,-15.45,-25.72,30.0000,211.0000
1983-03-25 06:00:00 UTC,2445418.750000,28.7317,-95.2428,0201,-15.45,-25.72,30.0000,211.0000
1983-03-25 06:30:00 UTC,2445418.770833,28.7317,-95.2428,0201,-14.54,-26.24,30.0000,209.0000
1983-03-25 07:00:00 UTC,2445418.791667,28.7317,-95.2428,0201,-13.62,-26.73,30.0000,207.0000
1983-03-25 07:30:00 UTC,2445418.812500,28.7317,-95.2428,0201,-12.71,-26.07,29.0000,206.0000
1983-03-25 08:00:00 UTC,2445418.833333,28.7317,-95.2428,0201,-12.71,-24.95,28.0000,207.0000
1983-03-25 08:30:00 UTC,2445418.854167,28.7317,-95.2428,0201,-11.83,-25.38,28.0000,205.0000
1983-03-25 09:00:00 UTC,2445418.875000,28.7317,-95.2428,0201,-10.49,-25.96,28.0000,202.0000
1983-03-25 09:30:00 UTC,2445418.895833,28.7317,-95.2428,0201,-10.39,-27.07,29.0000,201.0000
1983-03-25 10:00:00 UTC,2445418.916667,28.7317,-95.2428,0201,-11.33,-26.69,29.0000,203.0000
1983-03-25 10:30:00 UTC,2445418.937500,28.7317,-95.2428,0201,-10.94,-25.77,28.0000,203.0000
1983-03-25 11:00:00 UTC,2445418.958333,28.7317,-95.2428,0201,-9.32,-24.27,26.0000,201.0000
1983-03-25 11:30:00 UTC,2445418.979167,28.7317,-95.2428,0201,-8.55,-23.49,25.0000,200.0000
1983-03-25 12:00:00 UTC,2445419.000000,28.7317,-95.2428,0201,-8.96,-23.34,25.0000,201.0000
1983-03-25 12:30:00 UTC,2445419.020833,28.7317,-95.2428,0201,-9.74,-24.11,26.0000,202.0000
1983-03-25 13:00:00 UTC,2445419.041667,28.7317,-95.2428,0201,-10.16,-23.93,26.0000,203.0000
1983-03-25 13:30:00 UTC,2445419.062500,28.7317,-95.2428,0201,-9.77,-23.01,25.0000,203.0000
1983-03-25 14:00:00 UTC,2445419.083333,28.7317,-95.2428,0201,-10.17,-22.84,25.0000,204.0000
1983-03-25 14:30:00 UTC,2445419.104167,28.7317,-95.2428,0201,-10.99,-23.56,26.0000,205.0000
1983-03-25 15:00:00 UTC,2445419.125000,28.7317,-95.2428,0201,-11.80,-23.17,26.0000,207.0000
1983-03-25 15:30:00 UTC,2445419.145833,28.7317,-95.2428,0201,-11.80,-23.17,26.0000,207.0000
1983-03-25 16:00:00 UTC,2445419.166667,28.7317,-95.2428,0201,-11.80,-23.17,26.0000,207.0000
1983-03-25 16:30:00 UTC,2445419.187500,28.7317,-95.2428,0201,-11.80,-23.17,26.0000,207.0000
1983-03-25 17:00:00 UTC,2445419.208333,28.7317,-95.2428,0201,-12.26,-24.06,27.0000,207.0000
1983-03-25 17:30:00 UTC,2445419.229167,28.7317,-95.2428,0201,-12.26,-24.06,27.0000,207.0000
1983-03-25 18:00:00 UTC,2445419.250000,28.7317,-95.2428,0201,-13.15,-24.72,28.0000,208.0000
1983-03-25 18:30:00 UTC,2445419.270833,28.7317,-95.2428,0201,-14.08,-26.49,30.0000,208.0000
1983-03-25 19:00:00 UTC,2445419.291667,28.7317,-95.2428,0201,-13.59,-27.86,31.0000,206.0000
1983-03-25 19:30:00 UTC,2445419.312500,28.7317,-95.2428,0201,-11.72,-27.62,30.0000,203.0000
1983-03-25 20:00:00 UTC,2445419.333333,28.7317,-95.2428,0201,-10.39,-27.07,29.0000,201.0000
1983-03-25 20:30:00 UTC,2445419.354167,28.7317,-95.2428,0201,-10.39,-27.07,29.0000,201.0000
1983-03-25 21:00:00 UTC,2445419.375000,28.7317,-95.2428,0201,-11.24,-27.82,30.0000,202.0000
1983-03-25 21:30:00 UTC,2445419.395833,28.7317,-95.2428,0201,-11.61,-28.74,31.0000,202.0000
1983-03-25 22:00:00 UTC,2445419.416667,28.7317,-95.2428,0201,-11.11,-28.94,31.0000,201.0000
1983-03-25 22:30:00 UTC,2445419.437500,28.7317,-95.2428,0201,-10.75,-28.01,30.0000,201.0000
1983-03-25 23:00:00 UTC,2445419.458333,28.7317,-95.2428,0201,-9.58,-26.31,28.0000,200.0000
1983-03-25 23:30:00 UTC,2445419.479167,28.7317,-95.2428,0201,-8.79,-25.53,27.0000,199.0000
1983-03-26 00:00:00 UTC,2445419.500000,28.7317,-95.2428,0201,-9.12,-26.47,28.0000,199.0000
1983-03-26 00:30:00 UTC,2445419.520833,28.7317,-95.2428,0201,-10.26,-28.19,30.0000,200.0000
1983-03-26 01:00:00 UTC,2445419.541667,28.7317,-95.2428,0201,-10.60,-29.13,31.0000,200.0000
1983-03-26 01:30:00 UTC,2445419.562500,28.7317,-95.2428,0201,-9.27,-28.53,30.0000,198.0000
1983-03-26 02:00:00 UTC,2445419.583333,28.7317,-95.2428,0201,-7.76,-28.98,30.0000,195.0000
1983-03-26 02:30:00 UTC,2445419.604167,28.7317,-95.2428,0201,-6.52,-28.26,29.0000,193.0000
1983-03-26 03:00:00 UTC,2445419.625000,28.7317,-95.2428,0201,-6.52,-28.26,29.0000,193.0000
1983-03-26 03:30:00 UTC,2445419.645833,28.7317,-95.2428,0201,-6.52,-28.26,29.0000,193.0000
1983-03-26 04:00:00 UTC,2445419.666667,28.7317,-95.2428,0201,-5.53,-28.47,29.0000,191.0000
1983-03-26 04:30:00 UTC,2445419.687500,28.7317,-95.2428,0201,-4.18,-29.71,30.0000,188.0000
1983-03-26 05:00:00 UTC,2445419.708333,28.7317,-95.2428,0201,-3.34,-31.82,32.0000,186.0000
1983-03-26 05:30:00 UTC,2445419.729167,28.7317,-95.2428,0201,-4.27,-34.74,35.0000,187.0000
1983-03-26 06:00:00 UTC,2445419.750000,28.7317,-95.2428,0201,-5.01,-35.65,36.0000,188.0000
1983-03-26 06:30:00 UTC,2445419.770833,28.7317,-95.2428,0201,-6.49,-33.38,34.0000,191.0000
1983-03-26 07:00:00 UTC,2445419.791667,28.7317,-95.2428,0201,-9.36,-30.60,32.0000,197.0000
1983-03-26 07:30:00 UTC,2445419.812500,28.7317,-95.2428,0201,-10.74,-31.20,33.0000,199.0000
1983-03-26 08:00:00 UTC,2445419.833333,28.7317,-95.2428,0201,-10.74,-31.20,33.0000,199.0000
1983-03-26 08:30:00 UTC,2445419.854167,28.7317,-95.2428,0201,-10.42,-30.26,32.0000,199.0000
1983-03-26 09:00:00 UTC,2445419.875000,28.7317,-95.2428,0201,-11.99,-29.67,32.0000,202.0000
1983-03-26 09:30:00 UTC,2445419.895833,28.7317,-95.2428,0201,-13.02,-29.23,32.0000,204.0000
1983-03-26 10:00:00 UTC,2445419.916667,28.7317,-95.2428,0201,-12.61,-28.32,31.0000,204.0000
1983-03-26 10:30:00 UTC,2445419.937500,28.7317,-95.2428,0201,-12.20,-27.41,30.0000,204.0000
1983-03-26 11:00:00 UTC,2445419.958333,28.7317,-95.2428,0201,-12.61,-28.32,31.0000,204.0000
1983-03-26 11:30:00 UTC,2445419.979167,28.7317,-95.2428,0201,-13.52,-29.00,32.0000,205.0000
1983-03-26 12:00:00 UTC,2445420.000000,28.7317,-95.2428,0201,-13.95,-29.91,33.0000,205.0000
1983-03-26 12:30:00 UTC,2445420.020833,28.7317,-95.2428,0201,-14.47,-29.66,33.0000,206.0000
1983-03-26 13:00:00 UTC,2445420.041667,28.7317,-95.2428,0201,-15.49,-29.14,33.0000,208.0000
1983-03-26 13:30:00 UTC,2445420.062500,28.7317,-95.2428,0201,-15.90,-25.44,30.0000,212.0000
1983-03-26 14:00:00 UTC,2445420.083333,28.7317,-95.2428,0201,-15.10,-22.38,27.0000,214.0000
1983-03-26 14:30:00 UTC,2445420.104167,28.7317,-95.2428,0201,-14.42,-24.00,28.0000,211.0000
1983-03-26 15:00:00 UTC,2445420.125000,28.7317,-95.2428,0201,-14.00,-24.25,28.0000,210.0000
1983-03-26 15:30:00 UTC,2445420.145833,28.7317,-95.2428,0201,-14.31,-22.90,27.0000,212.0000
1983-03-26 16:00:00 UTC,2445420.166667,28.7317,-95.2428,0201,-14.31,-22.90,27.0000,212.0000
1983-03-26 16:30:00 UTC,2445420.187500,28.7317,-95.2428,0201,-13.57,-24.49,28.0000,209.0000
1983-03-26 17:00:00 UTC,2445420.208333,28.7317,-95.2428,0201,-11.41,-24.47,27.0000,205.0000
1983-03-26 17:30:00 UTC,2445420.229167,28.7317,-95.2428,0201,-8.96,-23.34,25.0000,201.0000
1983-03-26 18:00:00 UTC,2445420.250000,28.7317,-95.2428,0201,-7.81,-22.69,24.0000,199.0000
1983-03-26 18:30:00 UTC,2445420.270833,28.7317,-95.2428,0201,-6.62,-23.07,24.0000,196.0000
1983-03-26 19:00:00 UTC,2445420.291667,28.7317,-95.2428,0201,-5.81,-23.29,24.0000,194.0000
1983-03-26 19:30:00 UTC,2445420.312500,28.7317,-95.2428,0201,-5.56,-22.32,23.0000,194.0000
1983-03-26 20:00:00 UTC,2445420.333333,28.7317,-95.2428,0201,-4.95,-21.44,22.0000,193.0000
1983-03-26 20:30:00 UTC,2445420.354167,28.7317,-95.2428,0201,-5.32,-21.35,22.0000,194.0000
1983-03-26 21:00:00 UTC,2445420.375000,28.7317,-95.2428,0201,-5.32,-21.35,22.0000,194.0000
1983-03-26 21:30:00 UTC,2445420.395833,28.7317,-95.2428,0201,-5.95,-22.22,23.0000,195.0000
1983-03-26 22:00:00 UTC,2445420.416667,28.7317,-95.2428,0201,-7.42,-22.83,24.0000,198.0000
1983-03-26 22:30:00 UTC,2445420.437500,28.7317,-95.2428,0201,-6.89,-24.03,25.0000,196.0000
1983-03-26 23:00:00 UTC,2445420.458333,28.7317,-95.2428,0201,-5.62,-24.36,25.0000,193.0000
1983-03-26 23:30:00 UTC,2445420.479167,28.7317,-95.2428,0201,-5.62,-24.36,25.0000,193.0000
1983-03-27 00:00:00 UTC,2445420.500000,28.7317,-95.2428,0201,-6.62,-23.07,24.0000,196.0000
1983-03-27 00:30:00 UTC,2445420.520833,28.7317,-95.2428,0201,-7.16,-20.80,22.0000,199.0000
1983-03-27 01:00:00 UTC,2445420.541667,28.7317,-95.2428,0201,-6.14,-20.08,21.0000,197.0000
1983-03-27 01:30:00 UTC,2445420.562500,28.7317,-95.2428,0201,-4.72,-20.46,21.0000,193.0000
1983-03-27 02:00:00 UTC,2445420.583333,28.7317,-95.2428,0201,-6.14,-20.08,21.0000,197.0000
1983-03-27 02:30:00 UTC,2445420.604167,28.7317,-95.2428,0201,-7.16,-20.80,22.0000,199.0000
1983-03-27 03:00:00 UTC,2445420.625000,28.7317,-95.2428,0201,-6.43,-21.04,22.0000,197.0000
1983-03-27 03:30:00 UTC,2445420.645833,28.7317,-95.2428,0201,-6.49,-19.97,21.0000,198.0000
1983-03-27 04:00:00 UTC,2445420.666667,28.7317,-95.2428,0201,-7.17,-18.67,20.0000,201.0000
1983-03-27 04:30:00 UTC,2445420.687500,28.7317,-95.2428,0201,-6.84,-18.79,20.0000,200.0000
1983-03-27 05:00:00 UTC,2445420.708333,28.7317,-95.2428,0201,-6.19,-17.96,19.0000,199.0000
1983-03-27 05:30:00 UTC,2445420.729167,28.7317,-95.2428,0201,-6.74,-16.69,18.0000,202.0000
1983-03-27 06:00:00 UTC,2445420.750000,28.7317,-95.2428,0201,-6.91,-15.53,17.0000,204.0000
1983-03-27 06:30:00 UTC,2445420.770833,28.7317,-95.2428,0201,-6.64,-15.65,17.0000,203.0000
1983-03-27 07:00:00 UTC,2445420.791667,28.7317,-95.2428,0201,-6.76,-14.50,16.0000,205.0000
1983-03-27 07:30:00 UTC,2445420.812500,28.7317,-95.2428,0201,-6.81,-13.37,15.0000,207.0000
1983-03-27 08:00:00 UTC,2445420.833333,28.7317,-95.2428,0201,-6.58,-13.48,15.0000,206.0000
1983-03-27 08:30:00 UTC,2445420.854167,28.7317,-95.2428,0201,-6.58,-13.48,15.0000,206.0000
1983-03-27 09:00:00 UTC,2445420.875000,28.7317,-95.2428,0201,-7.50,-12.99,15.0000,210.0000
1983-03-27 09:30:00 UTC,2445420.895833,28.7317,-95.2428,0201,-8.71,-13.42,16.0000,213.0000
1983-03-27 10:00:00 UTC,2445420.916667,28.7317,-95.2428,0201,-9.51,-14.09,17.0000,214.0000
1983-03-27 10:30:00 UTC,2445420.937500,28.7317,-95.2428,0201,-9.26,-14.26,17.0000,213.0000
1983-03-27 11:00:00 UTC,2445420.958333,28.7317,-95.2428,0201,-7.72,-15.15,17.0000,207.0000
1983-03-27 11:30:00 UTC,2445420.979167,28.7317,-95.2428,0201,-6.64,-15.65,17.0000,203.0000
1983-03-27 12:00:00 UTC,2445421.000000,28.7317,-95.2428,0201,-6.76,-14.50,16.0000,205.0000
1983-03-27 12:30:00 UTC,2445421.020833,28.7317,-95.2428,0201,-6.57,-12.36,14.0000,208.0000
1983-03-27 13:00:00 UTC,2445421.041667,28.7317,-95.2428,0201,-4.50,-11.13,12.0000,202.0000
1983-03-27 13:30:00 UTC,2445421.062500,28.7317,-95.2428,0201,-3.58,-10.40,11.0000,199.0000
1983-03-27 14:00:00 UTC,2445421.083333,28.7317,-95.2428,0201,-2.63,-8.61,9.0000,197.0000
1983-03-27 14:30:00 UTC,2445421.104167,28.7317,-95.2428,0201,-0.31,-5.99,6.0000,183.0000
1983-03-27 15:00:00 UTC,2445421.125000,28.7317,-95.2428,0201,0.83,-3.91,4.0000,168.0000
1983-03-27 15:30:00 UTC,2445421.145833,28.7317,-95.2428,0201,1.22,-2.74,3.0000,156.0000
1983-03-27 16:00:00 UTC,2445421.166667,28.7317,-95.2428,0201,2.60,-1.50,3.0000,120.0000
1983-03-27 16:30:00 UTC,2445421.187500,28.7317,-95.2428,0201,4.89,1.04,5.0000,78.0000
1983-03-27 17:00:00 UTC,2445421.208333,28.7317,-95.2428,0201,6.14,6.58,9.0000,43.0000
1983-03-27 17:30:00 UTC,2445421.229167,28.7317,-95.2428,0201,6.57,12.36,14.0000,28.0000
1983-03-27 18:00:00 UTC,2445421.250000,28.7317,-95.2428,0201,8.50,14.72,17.0000,30.0000
1983-03-27 18:30:00 UTC,2445421.270833,28.7317,-95.2428,0201,10.83,14.38,18.0000,37.0000
1983-03-27 19:00:00 UTC,2445421.291667,28.7317,-95.2428,0201,12.96,13.90,19.0000,43.0000
1983-03-27 19:30:00 UTC,2445421.312500,28.7317,-95.2428,0201,14.63,13.64,20.0000,47.0000
1983-03-27 20:00:00 UTC,2445421.333333,28.7317,-95.2428,0201,14.97,11.70,19.0000,52.0000
1983-03-27 20:30:00 UTC,2445421.354167,28.7317,-95.2428,0201,15.93,10.35,19.0000,57.0000
1983-03-27 21:00:00 UTC,2445421.375000,28.7317,-95.2428,0201,15.74,8.73,18.0000,61.0000
1983-03-27 21:30:00 UTC,2445421.395833,28.7317,-95.2428,0201,15.41,7.18,17.0000,65.0000
1983-03-27 22:00:00 UTC,2445421.416667,28.7317,-95.2428,0201,14.94,5.73,16.0000,69.0000
1983-03-27 22:30:00 UTC,2445421.437500,28.7317,-95.2428,0201,11.59,3.11,12.0000,75.0000
1983-03-27 23:00:00 UTC,2445421.458333,28.7317,-95.2428,0201,7.96,0.84,8.0000,84.0000
1983-03-27 23:30:00 UTC,2445421.479167,28.7317,-95.2428,0201,4.95,-0.70,5.0000,98.0000
1983-03-28 00:00:00 UTC,2445421.500000,28.7317,-95.2428,0201,3.63,-1.69,4.0000,115.0000
1983-03-28 00:30:00 UTC,2445421.520833,28.7317,-95.2428,0201,3.19,-2.41,4.0000,127.0000
1983-03-28 01:00:00 UTC,2445421.541667,28.7317,-95.2428,0201,3.66,-3.41,5.0000,133.0000
1983-03-28 01:30:00 UTC,2445421.562500,28.7317,-95.2428,0201,2.83,-2.83,4.0000,135.0000
1983-03-28 02:00:00 UTC,2445421.583333,28.7317,-95.2428,0201,2.01,-2.23,3.0000,138.0000
1983-03-28 02:30:00 UTC,2445421.604167,28.7317,-95.2428,0201,2.12,-2.12,3.0000,135.0000
1983-03-28 03:00:00 UTC,2445421.625000,28.7317,-95.2428,0201,3.99,0.21,4.0000,87.0000
1983-03-28 03:30:00 UTC,2445421.645833,28.7317,-95.2428,0201,4.90,7.55,9.0000,33.0000
1983-03-28 04:00:00 UTC,2445421.666667,28.7317,-95.2428,0201,6.58,13.48,15.0000,26.0000